CAPE
750 890 948 786 557 638 815 605 404 644 649 381 245 165 111 182 44 22 19 17 6 14 4 4 1404 492 624 660 430 638 582 455 492 659 614 700 876 824 257 150 160 162 153 112 72 72 86 116 184 387 380 482 536 556 685 775 771 783 786 773 765 704 630 491 410 339 269 198 152 138 161 98 63 52
998 755 808 688 560 756 674 482 330 862 876 534 375 286 296 363 105 100 52 58 54 32 53 6 69 569 608 506 506 548 428 610 786 872 882 516 662 399 54 74 118 156 132 100 61 28 36 47 64 102 193 302 371 413 405 414 458 550 593 635 735 723 654 494 404 387 347 277 207 174 149 142 139 140
1037 951 799 945 675 862 537 546 558 818 820 649 434 530 477 434 158 217 173 82 194 38 57 38 12 159 425 116 201 418 522 706 654 762 787 880 505 27 954 222 84 48 44 33 21 10 2 0 0 4 28 83 180 230 271 328 399 508 496 571 665 705 752 620 476 477 447 372 314 257 258 263 210 170
950 922 820 977 829 884 714 614 650 962 802 728 556 504 506 633 467 446 353 187 117 272 39 81 135 59 148 560 383 258 301 631 570 812 715 884 225 888 556 464 55 56 28 18 9 0 0 0 0 0 6 33 112 264 439 483 450 472 485 435 389 356 352 250 297 397 425 423 379 337 317 325 362 356
819 845 784 828 815 868 651 614 469 499 868 912 729 748 708 484 579 484 398 233 193 332 164 206 104 140 195 240 467 404 285 740 664 313 613 682 561 484 502 510 333 32 14 2 0 0 0 0 0 0 3 21 86 258 329 280 200 109 105 146 47 35 57 32 68 124 152 190 198 210 216 247 316 326
726 792 808 721 755 842 481 528 389 310 395 446 288 645 355 506 734 553 396 278 184 120 738 562 468 389 330 276 620 485 308 546 748 814 745 627 582 565 443 394 464 57 24 10 2 1 0 0 0 0 0 2 34 84 114 50 2 0 1 0 0 0 0 0 0 5 4 32 60 122 134 173 167 213
868 755 765 711 681 667 449 574 361 323 464 291 276 385 551 523 386 891 583 372 294 242 264 450 254 264 550 362 517 712 541 617 595 619 670 454 544 564 484 400 304 125 22 9 4 0 0 0 0 0 0 0 0 0 0 0 0 0 0 0 0 0 0 0 0 0 0 2 1 13 23 50 58 101
950 799 806 683 624 623 446 540 516 655 589 724 698 631 1009 832 677 920 874 697 357 344 342 614 498 318 397 555 610 596 577 507 823 555 681 581 651 605 585 536 433 260 26 4 0 0 0 0 0 0 0 0 0 0 0 0 0 0 0 0 0 0 0 0 0 0 0 0 0 0 0 3 11 18
1018 877 820 765 716 725 535 626 541 549 822 736 785 726 902 782 730 786 782 879 831 611 581 537 723 767 676 674 680 608 579 705 769 798 754 637 624 716 441 268 272 79 25 0 0 0 0 0 0 0 0 0 0 0 0 0 0 0 0 0 0 0 0 0 0 0 0 0 0 0 0 0 0 0
1034 961 892 868 757 694 584 621 538 784 860 942 874 785 907 816 782 939 953 958 1037 837 772 788 693 832 598 779 760 753 580 537 502 610 918 936 763 804 747 497 292 178 122 161 234 240 275 292 4 1 0 0 0 0 0 0 0 0 0 0 0 0 0 0 0 0 0 0 0 0 0 0 0 0
956 870 888 927 755 643 621 565 644 769 743 828 781 882 952 908 936 911 916 1057 1018 967 834 864 924 782 792 811 722 957 547 635 569 431 580 798 1320 1189 809 518 255 160 187 257 97 79 88 66 90 115 0 0 0 0 0 0 0 0 0 0 0 0 0 0 0 0 0 0 0 0 0 0 0 0
860 814 758 670 636 581 637 591 580 576 657 741 783 939 954 1037 960 786 820 906 776 798 736 682 564 838 878 1065 745 649 600 671 849 671 493 584 728 754 739 709 371 294 308 386 223 289 206 234 164 111 117 34 3 0 0 0 0 0 0 0 0 0 0 0 0 0 0 0 0 0 0 0 0 0
928 761 672 504 451 522 537 280 384 334 418 753 913 1123 856 900 964 898 830 881 843 766 708 641 720 809 984 771 908 870 848 496 376 781 536 566 647 664 448 548 614 413 216 304 268 315 383 284 310 268 305 337 250 86 10 19 0 0 0 0 0 0 0 0 0 0 0 0 0 0 0 0 0 0
1102 795 659 556 500 414 217 166 126 83 58 242 442 1205 971 1037 1016 1037 954 792 820 727 634 561 554 690 618 674 921 592 411 520 540 518 497 380 592 513 364 296 450 357 278 223 292 411 361 193 198 244 168 120 212 244 220 212 72 6 0 0 0 0 0 0 0 0 0 0 0 0 0 0 0 0
1081 815 634 552 517 443 324 272 129 54 0 0 21 228 639 854 1100 984 906 740 718 680 597 628 921 735 590 803 612 362 162 521 534 495 594 454 420 246 146 147 169 345 283 226 268 270 336 330 224 187 188 134 162 162 166 60 0 0 0 0 0 0 0 0 0 0 0 0 0 0 0 0 0 0
1070 822 566 480 447 435 409 406 389 160 9 0 0 1 153 192 257 452 909 823 803 843 795 866 869 713 708 556 534 180 150 531 576 463 486 357 126 112 108 99 87 208 276 158 100 98 161 169 202 186 224 131 112 39 27 0 0 0 0 0 0 0 0 0 0 0 0 0 0 0 0 0 0 0
1154 940 634 452 413 448 479 386 520 556 336 49 228 298 287 226 0 0 15 300 849 984 1014 776 783 712 510 402 368 361 466 583 522 555 422 226 65 49 51 36 33 78 174 74 26 8 24 38 66 40 46 76 40 0 0 0 0 0 0 0 0 0 0 0 0 0 0 0 0 0 0 0 0 0
1150 1030 697 542 464 478 628 661 706 873 738 588 399 380 340 286 184 0 0 0 1 362 650 693 581 793 607 407 538 624 516 570 564 560 366 196 106 58 42 84 50 27 10 2 0 0 0 0 0 0 0 0 0 0 0 0 0 0 0 0 0 0 0 0 0 0 0 0 0 0 0 0 0 0
1140 1036 753 698 685 752 869 736 642 552 797 896 743 652 581 671 760 671 358 163 139 128 204 556 588 566 605 424 702 679 528 496 520 225 125 97 74 46 12 4 39 17 24 0 0 0 0 0 0 0 0 0 0 0 0 0 0 0 0 0 0 0 0 0 0 0 0 0 0 0 0 0 0 0
1304 1236 1081 923 864 790 735 776 694 700 722 688 614 821 916 978 1024 1003 716 257 217 244 280 334 146 194 202 285 542 528 370 297 95 15 0 4 0 0 0 0 0 0 1 3 0 0 0 0 0 0 0 0 0 0 0 0 0 0 0 0 0 0 0 0 0 0 0 0 0 0 0 0 0 0
1398 1380 1323 1229 1118 1015 982 960 874 819 816 830 731 692 827 1002 1015 814 452 1 0 0 0 0 0 0 0 0 0 0 0 10 0 0 0 0 0 0 0 0 0 0 0 0 0 0 0 0 0 0 0 0 0 0 0 0 0 0 0 0 0 0 0 0 0 0 0 0 0 0 0 0 0 0
1450 1447 1445 1415 1342 1272 1210 1193 1141 1024 983 954 790 603 823 809 825 634 373 43 0 0 0 0 0 0 0 0 0 0 0 0 0 0 0 0 0 0 0 0 0 0 0 0 0 0 0 0 0 0 0 0 0 0 0 0 0 0 0 0 0 0 0 0 0 0 0 0 0 0 0 0 0 2
1498 1526 1527 1548 1532 1444 1372 1345 1322 1192 1082 1031 856 668 857 827 753 588 383 195 34 9 0 0 0 0 0 0 0 0 0 0 0 0 0 0 0 0 0 0 0 0 0 0 0 0 0 0 0 0 0 0 0 0 0 0 0 0 0 0 0 0 0 0 0 0 0 0 0 0 0 0 0 7
1550 1556 1591 1622 1618 1486 1439 1433 1378 1202 1086 940 824 811 757 714 805 577 374 250 174 89 3 0 0 0 0 0 0 0 0 0 0 0 0 0 0 0 0 0 0 0 0 0 0 0 0 0 0 0 0 0 0 0 0 0 0 0 0 0 0 0 0 0 0 0 0 0 0 0 0 0 0 20
1598 1626 1591 1612 1668 1574 1504 1401 1160 1055 947 531 839 843 723 810 874 327 304 65 27 80 4 0 0 0 0 0 0 0 0 0 0 0 0 0 0 0 0 0 0 0 0 0 0 0 0 0 0 0 0 0 0 0 0 0 0 0 0 0 0 0 1 16 67 46 50 6 24 0 0 0 0 10
1619 1583 1550 1606 1620 1587 1412 1082 1052 934 692 402 711 1114 508 344 168 198 230 192 61 84 11 2 0 0 0 0 0 0 0 0 0 0 0 0 0 0 0 0 0 0 0 91 0 0 0 0 0 0 0 0 0 0 0 0 0 0 0 0 0 0 0 2 13 64 76 86 88 295 39 0 0 0
1652 1527 1547 1620 1692 1632 1402 1286 1038 819 588 400 250 322 192 191 0 56 204 83 83 109 81 40 0 0 0 0 0 0 0 0 0 0 0 0 0 0 0 0 0 0 0 0 0 0 2 0 0 0 0 0 0 0 0 0 0 0 0 0 0 0 0 0 0 6 2 11 42 23 7 0 0 0
1625 1609 1633 1693 1782 1803 1730 1433 1041 813 562 169 0 12 148 0 0 194 156 90 123 74 21 0 0 0 0 0 0 0 0 0 0 0 0 0 0 0 0 0 0 0 0 0 0 0 4 0 0 0 0 0 0 0 0 0 0 0 0 0 0 0 0 0 0 0 24 58 95 120 149 162 102 169
1668 1671 1690 1790 1770 1700 1542 1137 936 564 392 0 0 0 0 0 42 217 175 134 85 48 4 0 0 0 0 0 0 0 0 0 0 0 0 0 0 0 0 0 0 0 0 0 0 1 2 0 0 0 0 0 0 0 0 0 0 0 0 0 0 0 0 0 0 8 52 81 112 102 109 108 98 64
1661 1695 1684 1624 1596 1494 1176 887 714 560 347 0 0 0 213 0 57 112 83 50 44 52 0 0 0 0 0 0 0 3 1 0 0 0 0 0 0 0 0 0 0 0 0 0 0 0 0 0 0 0 0 0 0 0 0 0 0 0 0 0 0 0 0 7 33 44 52 64 86 96 76 62 64 52
1706 1686 1575 1378 1136 946 893 784 683 534 190 0 0 4 50 1 13 29 35 34 47 9 0 0 0 0 0 0 0 0 0 0 0 0 2 0 0 0 0 0 0 0 0 0 0 0 0 0 0 0 0 0 0 0 0 0 0 0 0 0 0 1 0 6 26 23 8 13 31 48 50 47 42 16
1664 1490 1229 815 582 651 704 646 484 206 0 0 46 134 16 0 0 0 0 1 8 0 0 0 0 0 0 0 0 0 0 0 0 1 0 0 0 0 0 0 0 0 0 0 0 1 4 0 0 0 0 0 0 0 0 0 0 0 0 0 0 2 2 6 7 13 9 14 5 0 0 0 0 0
1535 1304 786 360 360 440 503 416 232 93 0 43 193 88 0 0 0 0 0 0 0 0 0 0 0 0 0 0 0 0 0 0 3 4 2 0 0 0 0 0 0 0 0 0 0 0 0 0 0 0 0 0 0 0 0 0 0 0 0 0 0 0 2 3 7 1 12 10 5 0 1 0 0 0
1239 915 536 175 112 87 0 71 87 0 38 177 108 3 35 47 48 14 0 0 0 0 0 0 0 0 0 0 0 0 0 3 8 3 0 0 0 0 0 0 0 0 0 0 0 0 0 0 0 0 0 0 0 0 0 0 0 0 0 0 0 4 3 7 8 8 10 6 3 1 0 0 0 0
826 606 340 166 0 0 0 0 1 0 124 208 105 87 132 98 0 0 0 0 0 0 0 0 0 0 0 0 0 0 0 2 5 0 0 0 0 0 0 0 0 0 0 0 0 0 0 0 0 0 0 0 0 0 0 0 0 0 0 0 4 8 8 3 0 0 1 2 1 1 0 0 0 0
483 462 336 304 11 0 0 0 0 60 164 207 142 151 153 57 0 0 0 0 0 0 0 0 0 0 0 0 0 0 0 0 0 0 0 0 0 0 0 0 0 0 0 0 0 0 0 0 0 0 0 0 0 0 0 27 0 0 0 0 1 12 10 4 2 2 0 2 4 4 1 0 0 0
384 350 276 107 0 0 0 8 101 262 237 192 179 183 113 12 0 0 0 0 0 0 0 0 0 0 0 0 0 0 0 0 0 0 0 0 0 0 0 0 0 0 0 0 0 0 0 0 0 0 0 0 0 0 0 0 26 0 0 2 8 6 10 10 6 2 0 0 0 0 0 0 0 0
0 0 0 0 0 0 0 66 256 259 206 192 148 107 45 0 0 0 0 0 0 0 0 0 0 0 0 0 0 0 0 0 0 0 0 0 0 0 0 0 0 0 0 0 0 0 0 0 0 0 0 0 0 0 0 0 0 4 0 4 10 14 11 25 5 1 0 0 0 0 0 0 0 0
0 0 134 0 0 0 79 190 223 155 164 132 109 96 66 15 0 0 0 0 0 0 0 0 0 0 0 0 0 0 0 0 0 0 0 0 0 0 0 0 0 0 0 0 0 0 0 0 0 0 0 0 0 0 0 0 0 0 0 2 16 20 24 11 5 0 0 0 0 0 0 0 0 0
0 143 41 0 0 13 87 68 80 135 112 123 126 135 90 18 0 0 0 0 0 0 0 0 0 0 0 0 0 0 0 0 0 0 0 0 0 0 0 0 0 0 0 0 0 0 0 0 0 0 0 0 0 0 0 0 0 0 0 0 0 12 27 11 0 0 0 0 0 0 0 0 0 0
163 0 0 0 5 33 62 46 75 108 145 156 187 153 108 49 7 4 2 1 0 0 0 0 0 0 0 0 0 0 0 0 0 0 0 0 0 0 0 0 0 0 0 0 0 0 0 0 0 0 0 0 0 0 0 1 7 9 0 0 12 0 0 0 0 0 0 0 0 0 0 0 0 0
160 117 0 0 2 20 52 68 78 121 178 208 192 156 132 80 60 4 0 0 3 0 0 0 0 0 0 0 0 0 0 0 0 0 0 0 0 0 0 0 0 0 0 0 0 0 0 0 0 0 0 0 0 0 0 0 0 0 0 0 4 0 0 0 0 0 0 0 0 0 0 0 0 0
237 144 54 35 60 78 90 81 116 170 214 211 179 140 113 64 13 0 0 0 1 0 0 0 0 0 0 0 0 0 0 0 0 0 0 0 0 0 0 0 0 0 0 0 0 0 0 0 0 0 0 0 0 0 0 0 0 0 0 0 0 0 0 0 0 0 0 0 0 0 0 0 2 2
214 167 102 101 104 111 103 110 169 216 216 196 168 140 107 29 1 0 0 0 0 0 0 0 0 0 0 0 0 0 0 0 0 0 0 0 0 0 0 0 0 0 0 0 0 0 0 0 0 0 0 0 0 0 0 0 0 0 0 0 1 3 0 0 0 0 0 0 0 0 0 0 0 0
166 171 123 116 102 122 125 153 194 204 194 185 171 138 96 1 0 0 0 0 0 0 0 0 0 0 0 0 0 0 0 0 0 0 0 0 0 0 0 0 0 0 0 0 0 0 0 0 0 0 0 0 0 0 0 0 0 1 0 1 3 0 0 0 0 0 0 0 0 0 0 0 0 0
Wind_Speed
19 18 20 19 19 19 19 18 17 17 17 16 15 15 14 13 nan nan nan nan nan nan nan nan 14 14 18 20 21 22 22 23 22 24 25 25 24 27 25 24 23 22 22 22 nan nan nan 23 24 26 26 27 28 29 30 30 30 28 26 24 23 23 23 23 22 22 22 22 22 22 21 nan nan nan
18 19 19 20 19 20 20 19 16 15 16 16 16 16 15 14 13 10 nan nan nan nan nan nan nan 18 21 22 23 22 23 27 25 28 28 28 28 28 nan nan 24 24 23 nan nan nan nan nan nan 26 27 29 29 30 31 31 31 31 30 28 26 25 24 24 24 24 23 23 23 23 22 21 20 21
18 20 21 21 20 20 20 19 17 15 16 16 15 15 15 15 15 13 11 nan 9 nan nan nan nan 19 23 23 23 24 24 27 27 29 30 30 32 nan 30 30 nan nan nan nan nan nan nan nan nan nan nan nan 30 31 31 31 31 30 30 31 30 30 29 28 27 26 25 25 24 24 24 24 23 22
18 20 21 22 22 22 21 20 19 18 18 17 16 16 16 16 16 16 15 13 9 15 nan nan 19 nan 23 24 24 23 25 30 29 30 31 33 33 33 35 39 nan nan nan nan nan nan nan nan nan nan nan nan 32 32 32 32 31 30 31 31 32 32 33 32 31 30 30 29 28 27 26 25 25 25
20 21 22 22 23 24 24 22 20 20 22 21 19 17 17 17 18 18 18 15 13 15 18 19 19 22 23 24 25 25 28 30 31 31 33 34 35 36 36 37 43 nan nan nan nan nan nan nan nan nan nan nan nan 34 33 33 33 32 32 33 nan nan nan nan nan 34 34 33 32 31 29 28 27 27
22 23 24 24 25 25 26 25 22 21 23 23 22 21 20 18 19 19 17 18 17 14 19 20 22 23 25 24 26 26 28 31 33 34 36 36 37 37 37 37 40 nan nan nan nan nan nan nan nan nan nan nan nan nan 35 nan nan nan nan nan nan nan nan nan nan nan nan nan nan 35 34 32 31 30
24 25 25 26 26 27 28 27 23 21 22 22 22 22 21 20 19 20 19 18 18 18 17 18 19 22 26 25 27 30 30 31 33 35 37 37 38 38 38 38 38 45 nan nan nan nan nan nan nan nan nan nan nan nan nan nan nan nan nan nan nan nan nan nan nan nan nan nan nan nan nan nan nan 35
25 26 26 26 28 30 30 27 23 21 21 21 21 22 21 20 19 19 19 18 18 19 19 22 21 22 24 27 29 31 31 32 35 36 37 38 39 39 40 41 40 44 nan nan nan nan nan nan nan nan nan nan nan nan nan nan nan nan nan nan nan nan nan nan nan nan nan nan nan nan nan nan nan nan
25 27 26 27 29 31 29 26 23 23 23 23 23 23 22 20 19 19 19 18 19 19 21 23 24 26 27 28 30 32 32 34 35 37 38 38 39 41 40 42 44 nan nan nan nan nan nan nan nan nan nan nan nan nan nan nan nan nan nan nan nan nan nan nan nan nan nan nan nan nan nan nan nan nan
24 25 26 28 30 29 28 26 27 26 27 26 26 25 24 22 20 20 19 19 19 20 22 24 24 28 28 30 31 35 35 34 34 36 38 40 41 42 42 44 46 45 45 45 47 49 47 50 nan nan nan nan nan nan nan nan nan nan nan nan nan nan nan nan nan nan nan nan nan nan nan nan nan nan
22 24 26 28 28 28 27 27 28 29 29 27 27 27 26 24 23 21 20 20 20 21 22 24 26 27 30 32 32 37 37 36 36 36 37 38 42 42 43 44 47 47 47 46 nan nan nan nan nan 45 nan nan nan nan nan nan nan nan nan nan nan nan nan nan nan nan nan nan nan nan nan nan nan nan
21 24 25 27 28 28 28 28 28 30 29 27 26 27 28 27 24 21 20 20 20 20 21 23 24 28 31 34 35 37 36 37 38 38 37 35 36 38 42 46 48 48 46 44 43 50 49 46 45 43 42 nan nan nan nan nan nan nan nan nan nan nan nan nan nan nan nan nan nan nan nan nan nan nan
22 23 25 27 29 29 29 31 30 31 29 26 26 28 29 28 25 22 21 20 21 21 21 22 26 29 32 33 34 35 36 35 34 37 37 36 37 39 40 45 48 49 47 43 41 40 41 39 38 37 37 38 39 nan nan nan nan nan nan nan nan nan nan nan nan nan nan nan nan nan nan nan nan nan
24 25 27 29 32 32 32 34 34 nan nan 27 25 27 29 28 26 25 23 23 23 22 22 24 26 28 30 32 35 33 33 36 38 39 39 38 40 42 42 44 47 48 45 42 39 38 40 38 36 36 36 36 37 37 38 39 nan nan nan nan nan nan nan nan nan nan nan nan nan nan nan nan nan nan
25 26 29 31 34 35 34 34 37 nan nan nan nan 29 29 29 28 27 27 25 24 24 25 27 29 29 30 32 33 32 32 36 38 38 40 41 42 42 42 43 46 48 44 40 37 36 38 38 35 35 35 35 35 36 37 nan nan nan nan nan nan nan nan nan nan nan nan nan nan nan nan nan nan nan
27 28 31 33 35 35 35 35 35 32 nan nan nan nan 30 31 30 29 29 27 27 28 28 29 30 31 32 31 32 31 33 36 38 40 42 42 41 42 44 nan nan 43 43 36 nan nan 35 37 35 34 36 35 35 nan nan nan nan nan nan nan nan nan nan nan nan nan nan nan nan nan nan nan nan nan
29 31 32 34 36 36 41 40 35 31 33 nan 42 37 34 32 nan nan nan 29 28 30 30 30 31 32 31 30 30 33 35 38 38 41 43 43 nan nan nan nan nan nan 38 nan nan nan nan nan nan nan nan nan nan nan nan nan nan nan nan nan nan nan nan nan nan nan nan nan nan nan nan nan nan nan
32 34 35 36 38 38 42 41 38 35 38 42 41 39 37 35 35 nan nan nan nan 32 31 31 31 33 34 31 32 37 39 40 40 41 43 45 46 nan nan nan nan nan nan nan nan nan nan nan nan nan nan nan nan nan nan nan nan nan nan nan nan nan nan nan nan nan nan nan nan nan nan nan nan nan
34 35 36 38 40 42 44 44 43 41 43 45 48 49 45 41 39 39 39 38 37 36 35 34 32 33 34 32 35 38 39 40 40 42 43 nan nan nan nan nan nan nan nan nan nan nan nan nan nan nan nan nan nan nan nan nan nan nan nan nan nan nan nan nan nan nan nan nan nan nan nan nan nan nan
36 35 37 39 40 43 47 50 51 48 48 51 53 50 44 43 43 42 42 42 40 38 37 36 34 31 33 35 35 37 38 41 nan nan nan nan nan nan nan nan nan nan nan nan nan nan nan nan nan nan nan nan nan nan nan nan nan nan nan nan nan nan nan nan nan nan nan nan nan nan nan nan nan nan
38 36 38 40 40 44 47 51 52 51 51 50 51 47 44 45 46 45 45 nan nan nan nan nan nan nan nan nan nan nan nan nan nan nan nan nan nan nan nan nan nan nan nan nan nan nan nan nan nan nan nan nan nan nan nan nan nan nan nan nan nan nan nan nan nan nan nan nan nan nan nan nan nan nan
39 37 40 42 41 44 47 53 52 52 52 49 50 50 49 47 47 46 47 nan nan nan nan nan nan nan nan nan nan nan nan nan nan nan nan nan nan nan nan nan nan nan nan nan nan nan nan nan nan nan nan nan nan nan nan nan nan nan nan nan nan nan nan nan nan nan nan nan nan nan nan nan nan nan
40 39 41 43 43 46 52 57 54 55 54 51 52 53 51 48 47 47 48 46 nan nan nan nan nan nan nan nan nan nan nan nan nan nan nan nan nan nan nan nan nan nan nan nan nan nan nan nan nan nan nan nan nan nan nan nan nan nan nan nan nan nan nan nan nan nan nan nan nan nan nan nan nan nan
43 42 43 45 47 50 57 59 57 57 56 55 55 55 53 49 47 48 49 47 47 nan nan nan nan nan nan nan nan nan nan nan nan nan nan nan nan nan nan nan nan nan nan nan nan nan nan nan nan nan nan nan nan nan nan nan nan nan nan nan nan nan nan nan nan nan nan nan nan nan nan nan nan nan
45 44 43 45 52 55 59 59 58 58 58 57 57 58 56 50 49 52 49 nan nan nan nan nan nan nan nan nan nan nan nan nan nan nan nan nan nan nan nan nan nan nan nan nan nan nan nan nan nan nan nan nan nan nan nan nan nan nan nan nan nan nan nan nan nan nan nan nan nan nan nan nan nan nan
44 45 46 48 55 59 59 57 57 57 58 57 57 59 58 58 58 52 50 50 nan nan nan nan nan nan nan nan nan nan nan nan nan nan nan nan nan nan nan nan nan nan nan nan nan nan nan nan nan nan nan nan nan nan nan nan nan nan nan nan nan nan nan nan nan nan nan nan nan 27 nan nan nan nan
47 51 54 54 62 61 60 59 59 57 55 56 57 61 63 62 nan nan 50 nan nan 46 nan nan nan nan nan nan nan nan nan nan nan nan nan nan nan nan nan nan nan nan nan nan nan nan nan nan nan nan nan nan nan nan nan nan nan nan nan nan nan nan nan nan nan nan nan nan nan nan nan nan nan nan
58 61 62 63 67 64 64 63 61 55 56 58 nan nan 63 nan nan 50 50 nan 48 nan nan nan nan nan nan nan nan nan nan nan nan nan nan nan nan nan nan nan nan nan nan nan nan nan nan nan nan nan nan nan nan nan nan nan nan nan nan nan nan nan nan nan nan nan nan nan nan 27 27 27 28 29
59 62 69 73 71 68 67 64 60 58 61 nan nan nan nan nan nan 49 48 47 nan nan nan nan nan nan nan nan nan nan nan nan nan nan nan nan nan nan nan nan nan nan nan nan nan nan nan nan nan nan nan nan nan nan nan nan nan nan nan nan nan nan nan nan nan nan nan nan 29 29 29 30 nan nan
65 70 74 77 74 70 65 62 61 62 63 nan nan nan 57 nan nan 47 nan nan nan nan nan nan nan nan nan nan nan nan nan nan nan nan nan nan nan nan nan nan nan nan nan nan nan nan nan nan nan nan nan nan nan nan nan nan nan nan nan nan nan nan nan nan nan nan nan nan nan nan nan nan nan nan
68 72 77 76 74 70 68 65 66 67 68 nan nan nan nan nan nan nan nan nan nan nan nan nan nan nan nan nan nan nan nan nan nan nan nan nan nan nan nan nan nan nan nan nan nan nan nan nan nan nan nan nan nan nan nan nan nan nan nan nan nan nan nan nan nan nan nan nan nan nan nan nan nan nan
73 74 78 80 75 73 69 65 66 69 nan nan nan 54 nan nan nan nan nan nan nan nan nan nan nan nan nan nan nan nan nan nan nan nan nan nan nan nan nan nan nan nan nan nan nan nan nan nan nan nan nan nan nan nan nan nan nan nan nan nan nan nan nan nan nan nan nan nan nan nan nan nan nan nan
73 74 76 76 74 70 69 67 68 nan nan nan 51 nan nan nan nan nan nan nan nan nan nan nan nan nan nan nan nan nan nan nan nan nan nan nan nan nan nan nan nan nan nan nan nan nan nan nan nan nan nan nan nan nan nan nan nan nan nan nan nan nan nan nan nan nan nan nan nan nan nan nan nan nan
63 63 65 66 67 nan nan nan nan nan nan 58 50 nan nan nan nan nan nan nan nan nan nan nan nan nan nan nan nan nan nan nan nan nan nan nan nan nan nan nan nan nan nan nan nan nan nan nan nan nan nan nan nan nan nan nan nan nan nan nan nan nan nan nan nan nan nan nan nan nan nan nan nan nan
63 61 61 61 nan nan nan nan nan nan 62 55 47 nan 40 nan nan nan nan nan nan nan nan nan nan nan nan nan nan nan nan nan nan nan nan nan nan nan nan nan nan nan nan nan nan nan nan nan nan nan nan nan nan nan nan nan nan nan nan nan nan nan nan nan nan nan nan nan nan nan nan nan nan nan
64 63 65 64 nan nan nan nan nan nan 60 50 43 41 37 nan nan nan nan nan nan nan nan nan nan nan nan nan nan nan nan nan nan nan nan nan nan nan nan nan nan nan nan nan nan nan nan nan nan nan nan nan nan nan nan nan nan nan nan nan nan nan nan nan nan nan nan nan nan nan nan nan nan nan
69 67 67 64 nan nan nan nan 66 66 58 45 38 35 32 nan nan nan nan nan nan nan nan nan nan nan nan nan nan nan nan nan nan nan nan nan nan nan nan nan nan nan nan nan nan nan nan nan nan nan nan nan nan nan nan nan nan nan nan nan nan nan nan nan nan nan nan nan nan nan nan nan nan nan
nan nan nan nan nan nan nan nan 62 54 44 35 28 26 nan nan nan nan nan nan nan nan nan nan nan nan nan nan nan nan nan nan nan nan nan nan nan nan nan nan nan nan nan nan nan nan nan nan nan nan nan nan nan nan nan nan nan nan nan nan nan nan nan nan nan nan nan nan nan nan nan nan nan nan
nan nan 65 nan nan nan nan 60 48 36 30 26 22 nan nan nan nan nan nan nan nan nan nan nan nan nan nan nan nan nan nan nan nan nan nan nan nan nan nan nan nan nan nan nan nan nan nan nan nan nan nan nan nan nan nan nan nan nan nan nan nan nan nan nan nan nan nan nan nan nan nan nan nan nan
nan 65 nan nan nan nan nan nan nan 39 38 31 24 21 nan nan nan nan nan nan nan nan nan nan nan nan nan nan nan nan nan nan nan nan nan nan nan nan nan nan nan nan nan nan nan nan nan nan nan nan nan nan nan nan nan nan nan nan nan nan nan nan nan nan nan nan nan nan nan nan nan nan nan nan
57 nan nan nan nan nan nan nan nan 45 43 34 25 23 23 nan nan nan nan nan nan nan nan nan nan nan nan nan nan nan nan nan nan nan nan nan nan nan nan nan nan nan nan nan nan nan nan nan nan nan nan nan nan nan nan nan nan nan nan nan nan nan nan nan nan nan nan nan nan nan nan nan nan nan
55 60 nan nan nan nan nan nan nan 39 35 28 24 24 23 nan nan nan nan nan nan nan nan nan nan nan nan nan nan nan nan nan nan nan nan nan nan nan nan nan nan nan nan nan nan nan nan nan nan nan nan nan nan nan nan nan nan nan nan nan nan nan nan nan nan nan nan nan nan nan nan nan nan nan
64 65 nan nan nan nan nan nan 37 33 30 26 25 24 24 nan nan nan nan nan nan nan nan nan nan nan nan nan nan nan nan nan nan nan nan nan nan nan nan nan nan nan nan nan nan nan nan nan nan nan nan nan nan nan nan nan nan nan nan nan nan nan nan nan nan nan nan nan nan nan nan nan nan nan
60 52 43 39 38 37 35 33 32 30 29 27 25 25 26 nan nan nan nan nan nan nan nan nan nan nan nan nan nan nan nan nan nan nan nan nan nan nan nan nan nan nan nan nan nan nan nan nan nan nan nan nan nan nan nan nan nan nan nan nan nan nan nan nan nan nan nan nan nan nan nan nan nan nan
41 36 33 31 31 31 31 31 31 30 28 26 25 25 nan nan nan nan nan nan nan nan nan nan nan nan nan nan nan nan nan nan nan nan nan nan nan nan nan nan nan nan nan nan nan nan nan nan nan nan nan nan nan nan nan nan nan nan nan nan nan nan nan nan nan nan nan nan nan nan nan nan nan nan
Wind_Direction
1 1 2 3 7 8 6 8 6 354 349 352 351 349 349 343 nan nan nan nan nan nan nan nan 327 334 334 334 330 330 330 321 321 319 319 317 316 307 310 311 308 305 303 301 nan nan nan 287 285 286 285 285 287 287 287 285 282 280 277 275 271 268 266 265 264 263 263 262 261 260 258 nan nan nan
350 356 356 356 359 359 2 8 6 354 355 357 357 355 353 347 357 1 nan nan nan nan nan nan nan 336 339 337 332 330 327 317 326 321 320 319 313 306 nan nan 307 306 305 nan nan nan nan nan nan 280 279 280 281 284 285 285 283 281 280 277 275 271 268 265 263 261 261 261 260 258 257 253 248 244
344 351 354 349 350 348 355 0 359 353 354 358 356 355 351 350 354 355 356 nan 341 nan nan nan nan 339 337 337 334 331 327 320 323 320 317 315 308 nan 313 314 nan nan nan nan nan nan nan nan nan nan nan nan 279 278 277 277 278 279 277 276 274 271 268 266 263 261 259 259 258 257 255 254 252 248
339 347 350 347 346 344 347 354 355 352 350 350 352 352 352 350 350 345 346 354 4 346 nan nan 342 nan 338 335 335 331 323 316 323 315 314 310 313 313 310 315 nan nan nan nan nan nan nan nan nan nan nan nan 288 283 279 275 273 274 275 274 271 269 266 263 261 258 256 253 251 250 249 248 249 248
335 343 347 347 345 342 344 345 351 351 344 343 345 345 348 348 342 342 340 346 352 342 342 345 341 333 334 334 332 328 321 317 313 314 312 313 312 310 310 310 316 nan nan nan nan nan nan nan nan nan nan nan nan 292 289 283 276 272 271 271 nan nan nan nan nan 260 256 253 250 248 246 243 243 241
332 336 341 342 340 338 341 338 342 345 342 341 342 342 345 343 337 335 337 338 339 346 337 340 334 331 329 328 324 321 317 314 314 314 312 312 311 309 309 308 307 nan nan nan nan nan nan nan nan nan nan nan nan nan 288 nan nan nan nan nan nan nan nan nan nan nan nan nan nan 251 249 247 244 241
331 333 336 339 337 333 335 331 331 335 338 339 342 341 338 337 333 328 333 332 334 337 338 332 332 327 324 324 318 318 315 313 313 312 311 310 310 310 310 309 306 305 nan nan nan nan nan nan nan nan nan nan nan nan nan nan nan nan nan nan nan nan nan nan nan nan nan nan nan nan nan nan nan 241
331 333 332 335 335 332 334 332 328 327 330 332 332 334 331 330 328 324 326 332 332 329 331 330 330 324 321 320 316 314 313 313 312 311 311 313 313 313 313 311 308 306 nan nan nan nan nan nan nan nan nan nan nan nan nan nan nan nan nan nan nan nan nan nan nan nan nan nan nan nan nan nan nan nan
329 331 333 331 331 331 334 336 335 329 329 326 325 327 326 326 322 318 320 325 326 327 327 327 327 324 321 316 312 311 311 312 314 313 314 313 314 314 313 312 310 nan nan nan nan nan nan nan nan nan nan nan nan nan nan nan nan nan nan nan nan nan nan nan nan nan nan nan nan nan nan nan nan nan
324 327 329 327 329 332 334 334 332 327 326 321 320 322 323 323 320 317 318 320 323 325 325 324 325 322 319 314 312 312 313 314 313 313 314 316 316 314 313 311 311 309 309 308 310 313 314 314 nan nan nan nan nan nan nan nan nan nan nan nan nan nan nan nan nan nan nan nan nan nan nan nan nan nan
322 327 328 327 328 332 332 332 329 326 326 321 319 318 320 321 319 315 317 321 325 326 324 321 319 316 312 311 313 314 315 316 315 313 313 314 314 314 311 311 310 311 312 315 nan nan nan nan nan 301 nan nan nan nan nan nan nan nan nan nan nan nan nan nan nan nan nan nan nan nan nan nan nan nan
322 328 331 330 328 328 327 328 327 327 327 324 321 316 315 315 315 314 316 323 326 325 322 317 313 310 309 310 314 316 317 317 316 315 312 313 312 312 313 313 312 312 314 315 315 318 318 318 318 316 313 nan nan nan nan nan nan nan nan nan nan nan nan nan nan nan nan nan nan nan nan nan nan nan
319 323 326 325 325 324 323 329 328 329 328 328 324 315 313 313 312 313 316 321 322 320 316 312 309 309 309 313 317 318 318 317 315 313 314 316 317 316 315 314 315 316 318 319 318 315 310 309 309 305 303 303 305 nan nan nan nan nan nan nan nan nan nan nan nan nan nan nan nan nan nan nan nan nan
317 321 321 319 325 326 328 330 334 nan nan 336 329 315 313 313 313 315 318 320 319 317 314 311 310 311 313 317 319 320 318 316 316 319 321 321 319 318 318 319 318 318 319 319 319 315 310 310 310 309 307 306 306 302 301 292 nan nan nan nan nan nan nan nan nan nan nan nan nan nan nan nan nan nan
314 316 317 313 318 325 329 332 335 nan nan nan nan 325 316 314 316 317 319 319 317 313 312 309 309 313 315 318 319 319 318 319 320 321 320 321 321 321 320 320 320 320 318 319 320 317 312 313 316 313 312 311 309 306 302 nan nan nan nan nan nan nan nan nan nan nan nan nan nan nan nan nan nan nan
309 312 312 311 314 323 329 331 330 331 nan nan nan nan 324 321 322 320 317 315 311 311 312 311 313 315 317 317 318 320 321 322 323 322 322 322 324 324 324 nan nan 315 316 319 nan nan 315 317 320 318 316 314 311 nan nan nan nan nan nan nan nan nan nan nan nan nan nan nan nan nan nan nan nan nan
308 307 309 312 315 318 329 329 330 326 327 nan 334 331 330 326 nan nan nan 311 308 308 312 313 315 317 316 319 320 320 321 320 324 323 325 325 nan nan nan nan nan nan 317 nan nan nan nan nan nan nan nan nan nan nan nan nan nan nan nan nan nan nan nan nan nan nan nan nan nan nan nan nan nan nan
308 309 312 314 316 317 320 322 323 322 326 329 329 327 324 322 323 nan nan nan nan 309 310 314 318 316 316 318 319 320 322 324 325 326 326 325 326 nan nan nan nan nan nan nan nan nan nan nan nan nan nan nan nan nan nan nan nan nan nan nan nan nan nan nan nan nan nan nan nan nan nan nan nan nan
307 310 313 315 314 314 313 313 318 321 324 326 325 323 321 323 322 320 318 314 310 310 311 315 320 315 315 319 321 322 324 325 325 325 324 nan nan nan nan nan nan nan nan nan nan nan nan nan nan nan nan nan nan nan nan nan nan nan nan nan nan nan nan nan nan nan nan nan nan nan nan nan nan nan
303 308 311 311 310 309 312 316 323 324 321 324 326 322 317 317 318 318 309 307 308 306 311 315 317 317 314 316 322 322 323 323 nan nan nan nan nan nan nan nan nan nan nan nan nan nan nan nan nan nan nan nan nan nan nan nan nan nan nan nan nan nan nan nan nan nan nan nan nan nan nan nan nan nan
304 305 307 306 305 306 309 315 321 322 319 322 326 324 319 315 314 314 305 nan nan nan nan nan nan nan nan nan nan nan nan nan nan nan nan nan nan nan nan nan nan nan nan nan nan nan nan nan nan nan nan nan nan nan nan nan nan nan nan nan nan nan nan nan nan nan nan nan nan nan nan nan nan nan
299 304 310 307 304 303 304 310 316 316 315 317 320 322 321 317 313 312 306 nan nan nan nan nan nan nan nan nan nan nan nan nan nan nan nan nan nan nan nan nan nan nan nan nan nan nan nan nan nan nan nan nan nan nan nan nan nan nan nan nan nan nan nan nan nan nan nan nan nan nan nan nan nan nan
295 296 301 307 303 301 299 306 312 313 312 313 314 318 319 315 312 313 308 303 nan nan nan nan nan nan nan nan nan nan nan nan nan nan nan nan nan nan nan nan nan nan nan nan nan nan nan nan nan nan nan nan nan nan nan nan nan nan nan nan nan nan nan nan nan nan nan nan nan nan nan nan nan nan
292 293 294 298 302 301 301 307 311 311 312 310 309 312 316 314 313 310 307 305 304 nan nan nan nan nan nan nan nan nan nan nan nan nan nan nan nan nan nan nan nan nan nan nan nan nan nan nan nan nan nan nan nan nan nan nan nan nan nan nan nan nan nan nan nan nan nan nan nan nan nan nan nan nan
290 291 295 292 295 299 299 303 307 307 309 309 305 309 311 311 307 306 305 nan nan nan nan nan nan nan nan nan nan nan nan nan nan nan nan nan nan nan nan nan nan nan nan nan nan nan nan nan nan nan nan nan nan nan nan nan nan nan nan nan nan nan nan nan nan nan nan nan nan nan nan nan nan nan
291 291 292 287 290 296 295 298 300 301 304 308 300 303 308 304 301 305 303 302 nan nan nan nan nan nan nan nan nan nan nan nan nan nan nan nan nan nan nan nan nan nan nan nan nan nan nan nan nan nan nan nan nan nan nan nan nan nan nan nan nan nan nan nan nan nan nan nan nan 294 nan nan nan nan
291 285 284 283 287 292 292 293 293 292 300 301 298 301 302 303 nan nan 302 nan nan 306 nan nan nan nan nan nan nan nan nan nan nan nan nan nan nan nan nan nan nan nan nan nan nan nan nan nan nan nan nan nan nan nan nan nan nan nan nan nan nan nan nan nan nan nan nan nan nan nan nan nan nan nan
280 279 279 280 287 290 292 292 290 289 293 295 nan nan 302 nan nan 301 300 nan 302 nan nan nan nan nan nan nan nan nan nan nan nan nan nan nan nan nan nan nan nan nan nan nan nan nan nan nan nan nan nan nan nan nan nan nan nan nan nan nan nan nan nan nan nan nan nan nan nan 280 275 271 273 278
278 280 283 284 286 287 289 291 288 284 290 nan nan nan nan nan nan 302 302 301 nan nan nan nan nan nan nan nan nan nan nan nan nan nan nan nan nan nan nan nan nan nan nan nan nan nan nan nan nan nan nan nan nan nan nan nan nan nan nan nan nan nan nan nan nan nan nan nan 278 276 274 273 nan nan
277 277 277 277 278 278 280 279 275 276 281 nan nan nan 298 nan nan 303 nan nan nan nan nan nan nan nan nan nan nan nan nan nan nan nan nan nan nan nan nan nan nan nan nan nan nan nan nan nan nan nan nan nan nan nan nan nan nan nan nan nan nan nan nan nan nan nan nan nan nan nan nan nan nan nan
273 272 269 269 271 271 275 276 277 276 279 nan nan nan nan nan nan nan nan nan nan nan nan nan nan nan nan nan nan nan nan nan nan nan nan nan nan nan nan nan nan nan nan nan nan nan nan nan nan nan nan nan nan nan nan nan nan nan nan nan nan nan nan nan nan nan nan nan nan nan nan nan nan nan
269 270 270 272 271 270 271 274 274 274 nan nan nan 292 nan nan nan nan nan nan nan nan nan nan nan nan nan nan nan nan nan nan nan nan nan nan nan nan nan nan nan nan nan nan nan nan nan nan nan nan nan nan nan nan nan nan nan nan nan nan nan nan nan nan nan nan nan nan nan nan nan nan nan nan
267 269 273 275 276 274 272 271 272 nan nan nan 288 nan nan nan nan nan nan nan nan nan nan nan nan nan nan nan nan nan nan nan nan nan nan nan nan nan nan nan nan nan nan nan nan nan nan nan nan nan nan nan nan nan nan nan nan nan nan nan nan nan nan nan nan nan nan nan nan nan nan nan nan nan
273 276 278 279 280 nan nan nan nan nan nan 273 280 nan nan nan nan nan nan nan nan nan nan nan nan nan nan nan nan nan nan nan nan nan nan nan nan nan nan nan nan nan nan nan nan nan nan nan nan nan nan nan nan nan nan nan nan nan nan nan nan nan nan nan nan nan nan nan nan nan nan nan nan nan
283 286 288 288 nan nan nan nan nan nan 270 265 274 nan 285 nan nan nan nan nan nan nan nan nan nan nan nan nan nan nan nan nan nan nan nan nan nan nan nan nan nan nan nan nan nan nan nan nan nan nan nan nan nan nan nan nan nan nan nan nan nan nan nan nan nan nan nan nan nan nan nan nan nan nan
281 283 285 287 nan nan nan nan nan nan 269 263 270 279 281 nan nan nan nan nan nan nan nan nan nan nan nan nan nan nan nan nan nan nan nan nan nan nan nan nan nan nan nan nan nan nan nan nan nan nan nan nan nan nan nan nan nan nan nan nan nan nan nan nan nan nan nan nan nan nan nan nan nan nan
278 278 280 285 nan nan nan nan 283 275 266 262 268 275 280 nan nan nan nan nan nan nan nan nan nan nan nan nan nan nan nan nan nan nan nan nan nan nan nan nan nan nan nan nan nan nan nan nan nan nan nan nan nan nan nan nan nan nan nan nan nan nan nan nan nan nan nan nan nan nan nan nan nan nan
nan nan nan nan nan nan nan nan 279 270 262 261 268 273 nan nan nan nan nan nan nan nan nan nan nan nan nan nan nan nan nan nan nan nan nan nan nan nan nan nan nan nan nan nan nan nan nan nan nan nan nan nan nan nan nan nan nan nan nan nan nan nan nan nan nan nan nan nan nan nan nan nan nan nan
nan nan 280 nan nan nan nan 287 275 268 270 270 268 nan nan nan nan nan nan nan nan nan nan nan nan nan nan nan nan nan nan nan nan nan nan nan nan nan nan nan nan nan nan nan nan nan nan nan nan nan nan nan nan nan nan nan nan nan nan nan nan nan nan nan nan nan nan nan nan nan nan nan nan nan
nan 276 nan nan nan nan nan nan nan 270 281 279 273 279 nan nan nan nan nan nan nan nan nan nan nan nan nan nan nan nan nan nan nan nan nan nan nan nan nan nan nan nan nan nan nan nan nan nan nan nan nan nan nan nan nan nan nan nan nan nan nan nan nan nan nan nan nan nan nan nan nan nan nan nan
270 nan nan nan nan nan nan nan nan 272 272 267 270 280 279 nan nan nan nan nan nan nan nan nan nan nan nan nan nan nan nan nan nan nan nan nan nan nan nan nan nan nan nan nan nan nan nan nan nan nan nan nan nan nan nan nan nan nan nan nan nan nan nan nan nan nan nan nan nan nan nan nan nan nan
271 277 nan nan nan nan nan nan nan 269 263 264 274 278 272 nan nan nan nan nan nan nan nan nan nan nan nan nan nan nan nan nan nan nan nan nan nan nan nan nan nan nan nan nan nan nan nan nan nan nan nan nan nan nan nan nan nan nan nan nan nan nan nan nan nan nan nan nan nan nan nan nan nan nan
276 281 nan nan nan nan nan nan 264 260 261 269 274 271 271 nan nan nan nan nan nan nan nan nan nan nan nan nan nan nan nan nan nan nan nan nan nan nan nan nan nan nan nan nan nan nan nan nan nan nan nan nan nan nan nan nan nan nan nan nan nan nan nan nan nan nan nan nan nan nan nan nan nan nan
280 279 275 272 266 261 258 259 258 260 266 270 267 267 272 nan nan nan nan nan nan nan nan nan nan nan nan nan nan nan nan nan nan nan nan nan nan nan nan nan nan nan nan nan nan nan nan nan nan nan nan nan nan nan nan nan nan nan nan nan nan nan nan nan nan nan nan nan nan nan nan nan nan nan
271 269 265 262 259 256 255 259 263 267 267 266 267 271 nan nan nan nan nan nan nan nan nan nan nan nan nan nan nan nan nan nan nan nan nan nan nan nan nan nan nan nan nan nan nan nan nan nan nan nan nan nan nan nan nan nan nan nan nan nan nan nan nan nan nan nan nan nan nan nan nan nan nan nan